This demonstration page uses our WeatherBlox Daily Observations layout. Learn more.

Left ArrowRight Arrow

41.86663, -103.66717

Hourly Observations for January 29, 2016

Temp ( °F °C ) Dew Point ( °F °C ) Humidity (%) Winds ( mph kmh ) Pressure ( in mb ) Visibility ( mi km ) Precip ( " mm )
12:53 am 00:53 Clear 34 1.1 25 -3.9 70 70 WNW 5 7 29.76 1008 10 16 N/A
1:53 am 01:53 Clear 34 1.1 25 -3.9 70 70 NNW 5 7 29.72 1006 10 16 N/A
2:53 am 02:53 Clear 32 undefined 24 -4.4 73 73 NNW 7 11 29.71 1006 10 16 N/A
3:53 am 03:53 Clear 33 0.6 23 -5 66 66 WNW 6 9 29.70 1006 10 16 N/A
4:53 am 04:53 Clear 44 6.7 22 -5.6 41 41 WNW 21 33 29.67 1005 10 16 N/A
5:53 am 05:53 Clear 44 6.7 23 -5 43 43 WNW 22 35 29.70 1006 10 16 N/A
6:53 am 06:53 Clear 44 6.7 28 -2.2 53 53 W 29 46 29.71 1006 10 16 N/A
7:53 am 07:53 Mostly Cloudy 44 6.7 29 -1.7 55 55 WNW 25 41 29.76 1008 10 16 N/A
8:53 am 08:53 Mostly Sunny 42 5.6 32 undefined 68 68 WNW 21 33 29.85 1011 10 16 N/A
9:53 am 09:53 Sunny 43 6.1 33 0.6 68 68 WNW 15 24 29.87 1011 10 16 N/A
10:53 am 10:53 Partly Cloudy 47 8.3 33 0.6 59 59 NW 29 46 29.86 1011 10 16 N/A
11:53 am 11:53 Mostly Sunny 49 9.4 32 undefined 52 52 WNW 21 33 29.83 1010 10 16 N/A
12:53 pm 12:53 Sunny 52 11.1 32 undefined 47 47 WNW 12 19 29.78 1008 10 16 N/A
1:53 pm 13:53 Sunny 53 11.7 27 -2.8 37 37 W 17 28 29.76 1008 10 16 N/A
2:53 pm 14:53 Sunny 52 11.1 25 -3.9 35 35 W 25 41 29.76 1008 10 16 N/A
3:53 pm 15:53 Sunny 51 10.6 24 -4.4 35 35 W 12 19 29.74 1007 10 16 N/A
4:53 pm 16:53 Sunny 45 7.2 25 -3.9 46 46 NW 13 20 29.69 1005 10 16 N/A
5:53 pm 17:53 Mostly Clear 43 6.1 25 -3.9 49 49 W 8 13 29.74 1007 10 16 N/A
6:53 pm 18:53 Clear 38 3.3 25 -3.9 60 60 NNW 3 6 29.69 1006 10 16 N/A
7:53 pm 19:53 Clear 35 1.7 26 -3.3 70 70 E 3 6 29.70 1006 10 16 N/A
8:53 pm 20:53 Clear 36 2.2 26 -3.3 67 67 S 6 9 29.70 1006 10 16 N/A
9:53 pm 21:53 Clear 34 1.1 25 -3.9 70 70 ESE 7 11 29.67 1005 10 16 N/A
10:53 pm 22:53 Clear 42 5.6 26 -3.3 53 53 S 6 9 29.61 1003 10 16 N/A
11:53 pm 23:53 Clear 38 3.3 26 -3.3 62 62 N N/A 29.61 1003 10 16 N/A

Powered by AerisWeather